EW3190 Weather Reports


Display with metric or nautical units.
time (UTC)temp
F
wind
direction
speed
MPH
gust
MPH
rain 1hr
in
rain 24hr
in
rain mn
in
humidity
%
barometer
mb
20260505125016 0 0.0 0.0 0.00 0.00 0.00
20260505124509 0 0.0 0.0 0.00 0.00 0.00
20260505124118 0 0.0 0.0 0.00 0.00 0.00
20260505123516 0 0.0 0.0 0.00 0.00 0.00
20260505122516 0 0.0 0.0 0.00 0.00 0.00
20260505122011 0 0.0 0.0 0.00 0.00 0.00
20260505121620 0 0.0 0.0 0.00 0.00 0.00
20260505121021 0 0.0 0.0 0.00 0.00 0.00
20260505120036 0 0.0 0.0 0.00 0.00 0.00
20260505115511 0 0.0 0.0 0.00 0.00 0.00
20260505115121 0 0.0 0.0 0.00 0.00 0.00
20260505114536 0 0.0 0.0 0.00 0.00 0.00
20260505113526 0 0.0 0.0 0.00 0.00 0.00
20260505113017 0 0.0 0.0 0.00 0.00 0.00
20260505112642 0 0.0 0.0 0.00 0.00 0.00
20260505112026 0 0.0 0.0 0.00 0.00 0.00
20260505111027 0 0.0 0.0 0.00 0.00 0.00
20260505110513 0 0.0 0.0 0.00 0.00 0.00
20260505110122 0 0.0 0.0 0.00 0.00 0.00
20260505102026 0 0.0 0.0 0.00 0.00 0.00
20260505101514 0 0.0 0.0 0.00 0.00 0.00
20260505101119 0 0.0 0.0 0.00 0.00 0.00
20260505100516 0 0.0 0.0 0.00 0.00 0.00
20260505095536 0 0.0 0.0 0.00 0.00 0.00
20260505095014 0 0.0 0.0 0.00 0.00 0.00
20260505094618 0 0.0 0.0 0.00 0.00 0.00
20260505094016 0 0.0 0.0 0.00 0.00 0.00
20260505093016 0 0.0 0.0 0.00 0.00 0.00
20260505092504 0 0.0 0.0 0.00 0.00 0.00 66
20260505092113 0 180 10.0 18.0 0.00 0.00 0.00 66
20260505091056 61 180 8.0 13.0 0.00 0.00 0.00 66 1009.9
20260505090056 61 180 8.0 12.0 0.00 0.00 0.00 66 1009.9
20260505085041 61 180 9.0 15.0 0.00 0.00 0.00 65 1010.0
20260505084041 61 158 10.0 14.0 0.00 0.00 0.00 65 1009.8
20260505083016 62 158 12.0 16.0 0.00 0.00 0.00 64 1009.8
20260505082016 62 158 13.0 17.0 0.00 0.00 0.00 64 1009.7
20260505081036 62 158 12.0 17.0 0.00 0.00 0.00 64 1009.7
20260505080026 62 158 13.0 20.0 0.00 0.00 0.00 63 1009.6
20260505075016 62 158 13.0 16.0 0.00 0.00 0.00 64 1009.6
20260505074036 62 158 10.0 14.0 0.00 0.00 0.00 64 1009.8
20260505073016 62 158 10.0 17.0 0.00 0.00 0.00 64 1009.7
20260505072016 61 158 7.0 10.0 0.00 0.00 0.00 64 1010.0
20260505071021 61 180 8.0 14.0 0.00 0.00 0.00 64 1010.1
20260505070016 61 180 7.0 11.0 0.00 0.00 0.00 64 1010.1
20260505065016 61 180 10.0 16.0 0.00 0.00 0.00 64 1010.1
20260505064016 61 180 8.0 13.0 0.00 0.00 0.00 64 1010.1
20260505063016 61 158 10.0 15.0 0.00 0.00 0.00 63 1010.0
20260505062015 61 180 9.0 14.0 0.00 0.00 0.00 63 1010.1
20260505061016 61 180 11.0 16.0 0.00 0.00 0.00 63 1010.0
20260505060016 61 158 12.0 21.0 0.00 0.00 0.00 63 1010.0
20260505055036 62 158 14.0 22.0 0.00 0.00 0.00 62 1009.8
20260505054036 62 158 12.0 19.0 0.00 0.00 0.00 62 1009.8
20260505053016 61 158 13.0 20.0 0.00 0.00 0.00 62 1009.9
20260505052036 62 158 15.0 20.0 0.00 0.00 0.00 61 1010.0
20260505051016 62 158 15.0 22.0 0.00 0.00 0.00 60 1009.9
20260505041036 63 135 16.0 27.0 0.00 0.00 0.00 55 1010.0
20260505040017 63 135 15.0 28.0 0.00 0.00 0.00 55 1009.9
20260505035035 64 135 18.0 28.0 0.00 0.00 0.00 54 1009.8
20260505034015 64 135 16.0 27.0 0.00 0.00 0.00 53 1009.7
20260505033015 64 135 17.0 30.0 0.00 0.00 0.00 53 1009.6
20260505032015 64 135 20.0 31.0 0.00 0.00 0.00 52 1009.7
20260505031015 64 135 23.0 35.0 0.00 0.00 0.00 52 1009.8
20260505030020 64 135 21.0 34.0 0.00 0.00 0.00 52 1009.7
20260505025015 64 135 21.0 36.0 0.00 0.00 0.00 52 1009.9
20260505024017 63 135 17.0 33.0 0.00 0.00 0.00 53 1009.9
20260505023015 63 113 18.0 27.0 0.00 0.00 0.00 53 1009.8
20260505022037 63 113 19.0 26.0 0.00 0.00 0.00 53 1009.9
20260505021015 63 113 18.0 29.0 0.00 0.00 0.00 52 1010.1
20260505020037 63 113 19.0 29.0 0.00 0.00 0.00 51 1010.1
20260505015015 64 135 19.0 26.0 0.00 0.00 0.00 50 1010.2
20260505014027 64 113 18.0 28.0 0.00 0.00 0.00 50 1010.2
20260505013035 64 113 16.0 26.0 0.00 0.00 0.00 50 1009.9
20260505012017 64 135 18.0 29.0 0.00 0.00 0.00 50 1010.0
20260505011017 64 135 15.0 24.0 0.00 0.00 0.00 50 1010.0
20260505010017 64 113 15.0 31.0 0.00 0.00 0.00 50 1009.8
20260505005017 64 113 15.0 25.0 0.00 0.00 0.00 51 1009.7
20260505004036 64 113 15.0 27.0 0.00 0.00 0.00 50 1009.7
20260505003017 64 113 14.0 21.0 0.00 0.00 0.00 50 1009.6
20260505002017 64 113 14.0 20.0 0.00 0.00 0.00 50 1009.6
20260505001017 64 113 14.0 22.0 0.00 0.00 0.00 50 1009.6
20260505000044 65 113 12.0 21.0 0.00 0.00 0.00 50 1009.5
20260504235017 65 113 11.0 19.0 0.00 0.00 0.00 49 1009.5
20260504234017 65 113 11.0 23.0 0.00 0.00 0.00 48 1009.5
20260504233027 66 135 15.0 23.0 0.00 0.00 0.00 47 1009.3
20260504232017 66 135 10.0 19.0 0.00 0.00 0.00 47 1009.5
20260504231017 66 135 13.0 20.0 0.00 0.00 0.00 46 1009.3
20260504225017 66 113 15.0 24.0 0.00 0.00 0.00 46 1009.3
20260504224018 67 135 14.0 22.0 0.00 0.00 0.00 45 1009.3
20260504223110 67 135 12.0 23.0 0.00 0.00 0.00 45 1009.4
20260504222102 68 135 12.0 20.0 0.00 0.00 0.00 44 1009.4
20260504221102 68 135 10.0 19.0 0.00 0.00 0.00 43 1009.5
20260504220059 69 225 10.0 18.0 0.00 0.00 0.00 41 1009.6
20260504215017 69 180 11.0 20.0 0.00 0.00 0.00 41 1009.6
20260504214017 69 225 10.0 19.0 0.00 0.00 0.00 41 1009.5
20260504213034 69 158 13.0 22.0 0.00 0.00 0.00 41 1009.6
20260504212017 69 225 9.0 16.0 0.00 0.00 0.00 41 1009.7
20260504211017 69 248 10.0 17.0 0.00 0.00 0.00 41 1009.6
20260504210120 68 248 11.0 20.0 0.00 0.00 0.00 42 1009.7
20260504205027 68 248 11.0 20.0 0.00 0.00 0.00 41 1009.7
20260504204017 69 248 10.0 18.0 0.00 0.00 0.00 41 1009.9
20260504203017 68 225 13.0 24.0 0.00 0.00 0.00 41 1009.7
20260504202017 69 270 9.0 18.0 0.00 0.00 0.00 41 1009.9
20260504201017 68 225 12.0 19.0 0.00 0.00 0.00 42 1010.1
20260504200115 68 180 12.0 23.0 0.00 0.00 0.00 41 1010.2
20260504195017 67 225 15.0 25.0 0.00 0.00 0.00 42 1010.2
20260504194016 67 225 14.0 22.0 0.00 0.00 0.00 41 1010.4
20260504193047 67 225 14.0 22.0 0.00 0.00 0.00 42 1010.5
20260504192037 67 225 8.0 17.0 0.00 0.00 0.00 43 1010.7
20260504191017 68 180 10.0 19.0 0.00 0.00 0.00 42 1010.8
20260504190017 67 225 9.0 17.0 0.00 0.00 0.00 42 1010.8
20260504185022 67 180 9.0 16.0 0.00 0.00 0.00 42 1011.1
20260504184022 66 248 10.0 19.0 0.00 0.00 0.00 42 1011.0
20260504183017 66 248 11.0 18.0 0.00 0.00 0.00 43 1011.3
20260504182017 65 158 7.0 16.0 0.00 0.00 0.00 45 1011.4
20260504181016 65 225 9.0 18.0 0.00 0.00 0.00 45 1011.5
20260504180032 65 158 11.0 20.0 0.00 0.00 0.00 44 1011.6
20260504175017 64 180 9.0 14.0 0.00 0.00 0.00 45 1011.6
20260504174016 64 225 10.0 17.0 0.00 0.00 0.00 44 1011.9
20260504173027 64 180 11.0 19.0 0.00 0.00 0.00 44 1011.9
20260504172026 64 225 9.0 21.0 0.00 0.00 0.00 45 1012.2
20260504171021 63 180 11.0 20.0 0.00 0.00 0.00 45 1012.4
20260504151036 58 225 10.0 17.0 0.00 0.00 0.00 46 1013.6
20260504141022 56 180 5.0 8.0 0.00 0.00 0.00 53 1013.8